Location: Betz
(49.1556°N, 2.9558°E)
Time: 20:41:13
(UTC+00:00)

COBE Rocket - Pass Details

Date: 18 September 2019
Orbit: 681 x 781 km, 97.1° (Epoch: 16 October)

Event Time Altitude Azimuth Distance (km) Brightness Sun altitude
Rises 18:16:59 0° 11° (N) 3,177 7.2 -4.3°
Reaches altitude 10° 18:19:15 10° 11° (N) 2,265 6.4 -4.7°
Maximum altitude 18:24:15 81° 285° (WNW) 772 4.2 -5.5°
Drops below altitude 10° 18:29:21 10° 198° (SSW) 2,305 6.6 -6.3°
Sets 18:31:40 0° 198° (SSW) 3,237 7.3 -6.7°
